Hourly Data Report for October 15, 2015

All times are specified in Local Standard Time (LST). Add 1 hour to adjust for Daylight Saving Time where and when it is observed.

SAINT JOHN A
NEW BRUNSWICK

45°18'58.000" N
65°53'24.000" W
108.80 m
8104901
71609
YSJ

Download Data

Hourly Data (October 2015)
Hourly Data Report for October 15, 2015
Temp Definition
°C
Dew Point Temp Definition
°C
Rel Hum Definition
%
Wind Dir Definition
10's deg

Wind Spd Definition
km/h
Visibility Definition
km
Stn Press Definition
kPa
Hmdx Definition


Wind Chill Definition


Weather Definition


TIME
00:00 Legend Double Dagger 8.6 4.1 73 31 23 24.1 99.16     LegendNANA
01:00 Legend Double Dagger 7.8 2.5 69 31 17 24.1 99.21     LegendNANA
02:00 Legend Double Dagger 6.8 2.3 73 30 12 24.1 99.27     Mainly Clear
03:00 Legend Double Dagger 5.0 1.5 78 32 8 24.1 99.31     LegendNANA
04:00 Legend Double Dagger 5.0 1.3 77 33 11 24.1 99.35     LegendNANA
05:00 Legend Double Dagger 3.3 1.0 85 36 1 24.1 99.45     Clear
06:00 Legend Double Dagger 3.7 0.9 82 31 3 24.1 99.49     LegendNANA
07:00 Legend Double Dagger 3.6 0.8 82 30 12 24.1 99.54     LegendNANA
08:00 Legend Double Dagger 4.8 0.6 74 31 13 24.1 99.61     Mainly Clear
09:00 Legend Double Dagger 6.4 -0.8 60 31 26 24.1 99.66     LegendNANA
10:00 Legend Double Dagger 7.8 -1.7 51 29 23 24.1 99.69     LegendNANA
11:00 Legend Double Dagger 8.9 -1.2 49 29 23 24.1 99.70     Mainly Clear
12:00
13:00 Legend Double Dagger 11.1 0.3 47 31 14 24.1 99.68     LegendNANA
14:00 Legend Double Dagger 11.8 0.0 44 23 14 24.1 99.65     Clear
15:00 Legend Double Dagger 12.4 0.5 44 26 12 24.1 99.65     LegendNANA
16:00 Legend Double Dagger 12.1 3.4 55 21 16 24.1 99.70     LegendNANA
17:00 Legend Double Dagger 10.2 4.0 65 22 13 24.1 99.73     Clear
18:00 Legend Double Dagger 8.4 4.1 74 24 12 24.1 99.81     LegendNANA
19:00 Legend Double Dagger 6.2 4.2 87 22 10 24.1 99.85     LegendNANA
20:00 Legend Double Dagger 6.9 4.6 85 22 13 24.1 99.86     Clear
21:00 Legend Double Dagger 6.2 4.7 90 22 13 24.1 99.89     LegendNANA
22:00 Legend Double Dagger 6.7 5.7 93 23 11 24.1 99.95     LegendNANA
23:00 Legend Double Dagger 7.5 5.8 89 22 11 24.1 99.93     Clear

Notes on Data Quality.

Legend

  • E = Estimated
  • M = Missing
  • NA = Not Available
  • ‡ = Partner data that is not subject to review by the National Climate Archives
Date modified: